Starlink 3133

operational
NORAD ID: 49416 Int'l Des: 2021-104 Owner: SPXS Country: US Constellation: starlink
LEOCIRCULAR

About Starlink 3133

Description loading...

Live Position

Loading 3D Globe...

Upcoming Passes

Altitude History

Altitude vs Time

uPlot chart will show altitude changes over time

Two-Line Element Set

1 49416U 21104J 25257.37717687 -.00000636 00000-0 -21894-4 0 9994
2 49416 53.2171 300.6198 0001209 84.4891 275.6239 15.08838891212019
Epoch: Sep 14, 2025 • Age: 24 hours

Current Status

Altitude 540.4 km
Velocity 7.59 km/s
Sub-Earth Point 1.33°N, 168.98°E
Launch Date Nov 13, 2021
Age 3.8 years
Type internet

Technical Details

Classification Payload
Mass 290.00 kg
Dry Mass 270.00 kg
Total Mass 290.00 kg
Length 0.20 m
Diameter 2.80 m
Span 9.00 m
Shape Box + pan
Manufacturer SPXS
Bus Type Starlink
Phase Status In Orbit
Owner/State SPXS/US

Large Constellations

Loading constellations...